#datetime,building,power
2022-12-07T00:00:00,axn,37.24
2022-12-07T00:01:00,axn,36.58
2022-12-07T00:02:00,axn,36.48
2022-12-07T00:03:00,axn,36.87
2022-12-07T00:04:00,axn,36.91
2022-12-07T00:05:00,axn,36.84
2022-12-07T00:06:00,axn,36.83
2022-12-07T00:07:00,axn,36.18
2022-12-07T00:08:00,axn,36.09
2022-12-07T00:09:00,axn,35.90
2022-12-07T00:10:00,axn,35.88
2022-12-07T00:11:00,axn,35.84
2022-12-07T00:12:00,axn,36.07
2022-12-07T00:13:00,axn,37.07
2022-12-07T00:14:00,axn,37.44
2022-12-07T00:15:00,axn,37.62
2022-12-07T00:16:00,axn,37.34
2022-12-07T00:17:00,axn,37.60
2022-12-07T00:18:00,axn,37.45
2022-12-07T00:19:00,axn,37.02
2022-12-07T00:20:00,axn,36.77
2022-12-07T00:21:00,axn,36.79
2022-12-07T00:22:00,axn,36.61
2022-12-07T00:23:00,axn,36.99
2022-12-07T00:24:00,axn,36.40
2022-12-07T00:25:00,axn,37.01
2022-12-07T00:26:00,axn,37.11
2022-12-07T00:27:00,axn,37.14
2022-12-07T00:28:00,axn,37.09
2022-12-07T00:29:00,axn,37.00
2022-12-07T00:30:00,axn,36.91
2022-12-07T00:31:00,axn,37.11
2022-12-07T00:32:00,axn,36.51
2022-12-07T00:33:00,axn,37.09
2022-12-07T00:34:00,axn,36.95
2022-12-07T00:35:00,axn,36.83
2022-12-07T00:36:00,axn,37.01
2022-12-07T00:37:00,axn,37.87
2022-12-07T00:38:00,axn,37.42
2022-12-07T00:39:00,axn,37.41
2022-12-07T00:40:00,axn,37.27
2022-12-07T00:41:00,axn,37.18
2022-12-07T00:42:00,axn,37.09
2022-12-07T00:43:00,axn,37.35
2022-12-07T00:44:00,axn,37.32
2022-12-07T00:45:00,axn,37.44
2022-12-07T00:46:00,axn,38.09
2022-12-07T00:47:00,axn,37.59
2022-12-07T00:48:00,axn,37.58
2022-12-07T00:49:00,axn,37.68
2022-12-07T00:50:00,axn,37.47
2022-12-07T00:51:00,axn,37.75
2022-12-07T00:52:00,axn,37.54
2022-12-07T00:53:00,axn,37.51
2022-12-07T00:54:00,axn,37.86
2022-12-07T00:55:00,axn,37.55
2022-12-07T00:56:00,axn,37.68
2022-12-07T00:57:00,axn,37.64
2022-12-07T00:58:00,axn,37.61
2022-12-07T00:59:00,axn,37.68
2022-12-07T01:00:00,axn,37.14
2022-12-07T01:01:00,axn,37.23
2022-12-07T01:02:00,axn,37.11
2022-12-07T01:03:00,axn,37.32
2022-12-07T01:04:00,axn,37.62
2022-12-07T01:05:00,axn,37.50
2022-12-07T01:06:00,axn,37.63
2022-12-07T01:07:00,axn,37.19
2022-12-07T01:08:00,axn,36.93
2022-12-07T01:09:00,axn,36.77
2022-12-07T01:10:00,axn,36.83
2022-12-07T01:11:00,axn,37.70
2022-12-07T01:12:00,axn,36.75
2022-12-07T01:13:00,axn,36.73
2022-12-07T01:14:00,axn,36.79
2022-12-07T01:15:00,axn,36.82
2022-12-07T01:16:00,axn,36.74
2022-12-07T01:17:00,axn,36.85
2022-12-07T01:18:00,axn,36.94
2022-12-07T01:19:00,axn,36.97
2022-12-07T01:20:00,axn,36.82
2022-12-07T01:21:00,axn,36.86
2022-12-07T01:22:00,axn,37.28
2022-12-07T01:23:00,axn,39.96
2022-12-07T01:24:00,axn,36.69
2022-12-07T01:25:00,axn,39.42
2022-12-07T01:26:00,axn,39.45
2022-12-07T01:27:00,axn,39.45
2022-12-07T01:28:00,axn,36.46
2022-12-07T01:29:00,axn,35.79
2022-12-07T01:30:00,axn,38.05
2022-12-07T01:31:00,axn,35.77
2022-12-07T01:32:00,axn,35.85
2022-12-07T01:33:00,axn,35.68
2022-12-07T01:34:00,axn,35.82
2022-12-07T01:35:00,axn,35.84
2022-12-07T01:36:00,axn,35.86
2022-12-07T01:37:00,axn,36.25
2022-12-07T01:38:00,axn,36.56
2022-12-07T01:39:00,axn,35.98
2022-12-07T01:40:00,axn,35.77
2022-12-07T01:41:00,axn,35.64
2022-12-07T01:42:00,axn,35.70
2022-12-07T01:43:00,axn,35.94
2022-12-07T01:44:00,axn,36.56
2022-12-07T01:45:00,axn,36.69
2022-12-07T01:46:00,axn,36.58
2022-12-07T01:47:00,axn,36.90
2022-12-07T01:48:00,axn,36.92
2022-12-07T01:49:00,axn,36.93
2022-12-07T01:50:00,axn,36.91
2022-12-07T01:51:00,axn,51.84
2022-12-07T01:52:00,axn,50.83
2022-12-07T01:53:00,axn,50.64
2022-12-07T01:54:00,axn,50.54
2022-12-07T01:55:00,axn,50.56
2022-12-07T01:56:00,axn,36.43
2022-12-07T01:57:00,axn,46.78
2022-12-07T01:58:00,axn,46.40
2022-12-07T01:59:00,axn,46.59
2022-12-07T02:00:00,axn,46.58
2022-12-07T02:01:00,axn,46.70
2022-12-07T02:02:00,axn,36.94
2022-12-07T02:03:00,axn,36.92
2022-12-07T02:04:00,axn,37.01
2022-12-07T02:05:00,axn,36.98
2022-12-07T02:06:00,axn,36.49
2022-12-07T02:07:00,axn,37.10
2022-12-07T02:08:00,axn,36.76
2022-12-07T02:09:00,axn,36.61
2022-12-07T02:10:00,axn,36.65
2022-12-07T02:11:00,axn,36.63
2022-12-07T02:12:00,axn,36.56
2022-12-07T02:13:00,axn,36.47
2022-12-07T02:14:00,axn,36.39
2022-12-07T02:15:00,axn,36.36
2022-12-07T02:16:00,axn,36.32
2022-12-07T02:17:00,axn,36.39
2022-12-07T02:18:00,axn,36.47
2022-12-07T02:19:00,axn,36.49
2022-12-07T02:20:00,axn,36.75
2022-12-07T02:21:00,axn,36.30
2022-12-07T02:22:00,axn,36.36
2022-12-07T02:23:00,axn,36.60
2022-12-07T02:24:00,axn,36.30
2022-12-07T02:25:00,axn,36.34
2022-12-07T02:26:00,axn,36.37
2022-12-07T02:27:00,axn,36.35
2022-12-07T02:28:00,axn,36.24
2022-12-07T02:29:00,axn,36.28
2022-12-07T02:30:00,axn,35.80
2022-12-07T02:31:00,axn,35.87
2022-12-07T02:32:00,axn,35.87
2022-12-07T02:33:00,axn,35.77
2022-12-07T02:34:00,axn,35.79
2022-12-07T02:35:00,axn,35.37
2022-12-07T02:36:00,axn,35.68
2022-12-07T02:37:00,axn,35.74
2022-12-07T02:38:00,axn,36.11
2022-12-07T02:39:00,axn,35.96
2022-12-07T02:40:00,axn,35.88
2022-12-07T02:41:00,axn,35.89
2022-12-07T02:42:00,axn,35.86
2022-12-07T02:43:00,axn,35.93
2022-12-07T02:44:00,axn,35.88
2022-12-07T02:45:00,axn,36.03
2022-12-07T02:46:00,axn,36.27
2022-12-07T02:47:00,axn,35.99
2022-12-07T02:48:00,axn,36.05
2022-12-07T02:49:00,axn,35.99
2022-12-07T02:50:00,axn,36.05
2022-12-07T02:51:00,axn,35.97
2022-12-07T02:52:00,axn,35.94
2022-12-07T02:53:00,axn,35.78
2022-12-07T02:54:00,axn,35.80
2022-12-07T02:55:00,axn,35.91
2022-12-07T02:56:00,axn,35.93
2022-12-07T02:57:00,axn,35.84
2022-12-07T02:58:00,axn,35.81
2022-12-07T02:59:00,axn,35.82
2022-12-07T03:00:00,axn,36.20
2022-12-07T03:01:00,axn,35.79
2022-12-07T03:02:00,axn,35.77
2022-12-07T03:03:00,axn,35.71
2022-12-07T03:04:00,axn,35.70
2022-12-07T03:05:00,axn,35.71
2022-12-07T03:06:00,axn,36.06
2022-12-07T03:07:00,axn,36.10
2022-12-07T03:08:00,axn,36.22
2022-12-07T03:09:00,axn,36.12
2022-12-07T03:10:00,axn,36.00
2022-12-07T03:11:00,axn,36.01
2022-12-07T03:12:00,axn,36.05
2022-12-07T03:13:00,axn,39.27
2022-12-07T03:14:00,axn,39.00
2022-12-07T03:15:00,axn,39.00
2022-12-07T03:16:00,axn,36.40
2022-12-07T03:17:00,axn,36.38
2022-12-07T03:18:00,axn,36.22
2022-12-07T03:19:00,axn,36.15
2022-12-07T03:20:00,axn,36.04
2022-12-07T03:21:00,axn,36.10
2022-12-07T03:22:00,axn,36.00
2022-12-07T03:23:00,axn,36.14
2022-12-07T03:24:00,axn,36.04
2022-12-07T03:25:00,axn,36.24
2022-12-07T03:26:00,axn,36.06
2022-12-07T03:27:00,axn,36.09
2022-12-07T03:28:00,axn,35.96
2022-12-07T03:29:00,axn,36.35
2022-12-07T03:30:00,axn,35.90
2022-12-07T03:31:00,axn,36.00
2022-12-07T03:32:00,axn,35.93
2022-12-07T03:33:00,axn,36.03
2022-12-07T03:34:00,axn,36.12
2022-12-07T03:35:00,axn,35.85
2022-12-07T03:36:00,axn,35.82
2022-12-07T03:37:00,axn,35.83
2022-12-07T03:38:00,axn,35.66
2022-12-07T03:39:00,axn,35.33
2022-12-07T03:40:00,axn,35.46
2022-12-07T03:41:00,axn,27.40
2022-12-07T03:42:00,axn,27.35
2022-12-07T03:43:00,axn,33.41
2022-12-07T03:44:00,axn,33.39
2022-12-07T03:45:00,axn,33.44
2022-12-07T03:46:00,axn,27.51
2022-12-07T03:47:00,axn,27.41
2022-12-07T03:48:00,axn,27.36
2022-12-07T03:49:00,axn,27.31
2022-12-07T03:50:00,axn,27.49
2022-12-07T03:51:00,axn,27.52
2022-12-07T03:52:00,axn,27.54
2022-12-07T03:53:00,axn,27.56
2022-12-07T03:54:00,axn,27.50
2022-12-07T03:55:00,axn,27.53
2022-12-07T03:56:00,axn,27.45
2022-12-07T03:57:00,axn,27.41
2022-12-07T03:58:00,axn,27.50
2022-12-07T03:59:00,axn,30.26
2022-12-07T04:00:00,axn,27.39
2022-12-07T04:01:00,axn,27.42
2022-12-07T04:02:00,axn,27.51
2022-12-07T04:03:00,axn,27.35
2022-12-07T04:04:00,axn,27.42
2022-12-07T04:05:00,axn,27.43
2022-12-07T04:06:00,axn,27.39
2022-12-07T04:07:00,axn,27.35
2022-12-07T04:08:00,axn,27.80
2022-12-07T04:09:00,axn,27.41
2022-12-07T04:10:00,axn,27.47
2022-12-07T04:11:00,axn,27.49
2022-12-07T04:12:00,axn,27.26
2022-12-07T04:13:00,axn,27.26
2022-12-07T04:14:00,axn,27.15
2022-12-07T04:15:00,axn,27.30
2022-12-07T04:16:00,axn,27.12
2022-12-07T04:17:00,axn,27.04
2022-12-07T04:18:00,axn,27.03
2022-12-07T04:19:00,axn,26.98
2022-12-07T04:20:00,axn,27.02
2022-12-07T04:21:00,axn,27.02
2022-12-07T04:22:00,axn,27.15
2022-12-07T04:23:00,axn,27.10
2022-12-07T04:24:00,axn,27.05
2022-12-07T04:25:00,axn,26.96
2022-12-07T04:26:00,axn,42.73
2022-12-07T04:27:00,axn,27.64
2022-12-07T04:28:00,axn,27.54
2022-12-07T04:29:00,axn,27.74
2022-12-07T04:30:00,axn,27.98
2022-12-07T04:31:00,axn,27.59
2022-12-07T04:32:00,axn,27.66
2022-12-07T04:33:00,axn,27.55
2022-12-07T04:34:00,axn,27.58
2022-12-07T04:35:00,axn,27.46
2022-12-07T04:36:00,axn,50.84
2022-12-07T04:37:00,axn,27.28
2022-12-07T04:38:00,axn,27.35
2022-12-07T04:39:00,axn,27.34
2022-12-07T04:40:00,axn,27.54
2022-12-07T04:41:00,axn,27.48
2022-12-07T04:42:00,axn,27.84
2022-12-07T04:43:00,axn,28.07
2022-12-07T04:44:00,axn,27.70
2022-12-07T04:45:00,axn,28.49
2022-12-07T04:46:00,axn,28.17
2022-12-07T04:47:00,axn,28.22
2022-12-07T04:48:00,axn,28.41
2022-12-07T04:49:00,axn,27.97
2022-12-07T04:50:00,axn,28.07
2022-12-07T04:51:00,axn,28.03
2022-12-07T04:52:00,axn,27.87
2022-12-07T04:53:00,axn,28.01
2022-12-07T04:54:00,axn,27.94
2022-12-07T04:55:00,axn,28.07
2022-12-07T04:56:00,axn,28.09
2022-12-07T04:57:00,axn,27.96
2022-12-07T04:58:00,axn,28.26
2022-12-07T04:59:00,axn,28.03
2022-12-07T05:00:00,axn,27.95
2022-12-07T05:01:00,axn,26.04
2022-12-07T05:02:00,axn,25.97
2022-12-07T05:03:00,axn,25.92
2022-12-07T05:04:00,axn,26.20
2022-12-07T05:05:00,axn,25.73
2022-12-07T05:06:00,axn,25.74
2022-12-07T05:07:00,axn,25.47
2022-12-07T05:08:00,axn,25.69
2022-12-07T05:09:00,axn,25.97
2022-12-07T05:10:00,axn,25.72
2022-12-07T05:11:00,axn,26.44
2022-12-07T05:12:00,axn,25.70
2022-12-07T05:13:00,axn,25.50
2022-12-07T05:14:00,axn,25.30
2022-12-07T05:15:00,axn,25.28
2022-12-07T05:16:00,axn,25.24
2022-12-07T05:17:00,axn,25.23
2022-12-07T05:18:00,axn,25.23
2022-12-07T05:19:00,axn,25.76
2022-12-07T05:20:00,axn,25.35
2022-12-07T05:21:00,axn,25.31
2022-12-07T05:22:00,axn,25.17
2022-12-07T05:23:00,axn,25.25
2022-12-07T05:24:00,axn,25.03
2022-12-07T05:25:00,axn,25.37
2022-12-07T05:26:00,axn,25.39
2022-12-07T05:27:00,axn,25.47
2022-12-07T05:28:00,axn,25.38
2022-12-07T05:29:00,axn,25.35
2022-12-07T05:30:00,axn,25.34
2022-12-07T05:31:00,axn,25.13
2022-12-07T05:32:00,axn,25.02
2022-12-07T05:33:00,axn,25.06
2022-12-07T05:34:00,axn,29.91
2022-12-07T05:35:00,axn,30.11
2022-12-07T05:36:00,axn,29.60
2022-12-07T05:37:00,axn,25.28
2022-12-07T05:38:00,axn,25.10
2022-12-07T05:39:00,axn,25.02
2022-12-07T05:40:00,axn,25.06
2022-12-07T05:41:00,axn,24.98
2022-12-07T05:42:00,axn,24.88
2022-12-07T05:43:00,axn,27.57
2022-12-07T05:44:00,axn,27.82
2022-12-07T05:45:00,axn,28.51
2022-12-07T05:46:00,axn,28.87
2022-12-07T05:47:00,axn,29.10
2022-12-07T05:48:00,axn,29.84
2022-12-07T05:49:00,axn,29.21
2022-12-07T05:50:00,axn,39.40
2022-12-07T05:51:00,axn,39.29
2022-12-07T05:52:00,axn,39.39
2022-12-07T05:53:00,axn,39.09
2022-12-07T05:54:00,axn,28.98
2022-12-07T05:55:00,axn,29.00
2022-12-07T05:56:00,axn,29.01
2022-12-07T05:57:00,axn,29.06
2022-12-07T05:58:00,axn,29.37
2022-12-07T05:59:00,axn,29.08
2022-12-07T06:00:00,axn,29.38
2022-12-07T06:01:00,axn,30.22
2022-12-07T06:02:00,axn,29.37
2022-12-07T06:03:00,axn,29.17
2022-12-07T06:04:00,axn,31.73
2022-12-07T06:05:00,axn,32.09
2022-12-07T06:06:00,axn,31.94
2022-12-07T06:07:00,axn,29.38
2022-12-07T06:08:00,axn,29.22
2022-12-07T06:09:00,axn,29.11
2022-12-07T06:10:00,axn,29.03
2022-12-07T06:11:00,axn,28.88
2022-12-07T06:12:00,axn,26.77
2022-12-07T06:13:00,axn,26.93
2022-12-07T06:14:00,axn,26.83
2022-12-07T06:15:00,axn,26.76
2022-12-07T06:16:00,axn,27.14
2022-12-07T06:17:00,axn,27.14
2022-12-07T06:18:00,axn,27.22
2022-12-07T06:19:00,axn,26.61
2022-12-07T06:20:00,axn,26.38
2022-12-07T06:21:00,axn,26.46
2022-12-07T06:22:00,axn,26.01
2022-12-07T06:23:00,axn,32.00
2022-12-07T06:24:00,axn,46.54
2022-12-07T06:25:00,axn,46.33
2022-12-07T06:26:00,axn,40.26
2022-12-07T06:27:00,axn,39.96
2022-12-07T06:28:00,axn,40.16
2022-12-07T06:29:00,axn,42.37
2022-12-07T06:30:00,axn,32.75
2022-12-07T06:31:00,axn,31.45
2022-12-07T06:32:00,axn,31.12
2022-12-07T06:33:00,axn,30.65
2022-12-07T06:34:00,axn,46.32
2022-12-07T06:35:00,axn,30.51
2022-12-07T06:36:00,axn,30.27
2022-12-07T06:37:00,axn,30.22
2022-12-07T06:38:00,axn,30.16
2022-12-07T06:39:00,axn,30.18
2022-12-07T06:40:00,axn,30.32
2022-12-07T06:41:00,axn,30.29
2022-12-07T06:42:00,axn,30.25
2022-12-07T06:43:00,axn,30.16
2022-12-07T06:44:00,axn,30.00
2022-12-07T06:45:00,axn,30.30
2022-12-07T06:46:00,axn,29.52
2022-12-07T06:47:00,axn,29.51
2022-12-07T06:48:00,axn,29.24
2022-12-07T06:49:00,axn,29.15
2022-12-07T06:50:00,axn,28.80
2022-12-07T06:51:00,axn,28.96
2022-12-07T06:52:00,axn,29.02
2022-12-07T06:53:00,axn,29.32
2022-12-07T06:54:00,axn,29.56
2022-12-07T06:55:00,axn,29.05
2022-12-07T06:56:00,axn,28.79
2022-12-07T06:57:00,axn,28.75
2022-12-07T06:58:00,axn,28.57
2022-12-07T06:59:00,axn,28.94
2022-12-07T07:00:00,axn,29.23
2022-12-07T07:01:00,axn,32.72
2022-12-07T07:02:00,axn,34.22
2022-12-07T07:03:00,axn,34.12
2022-12-07T07:04:00,axn,34.64
2022-12-07T07:05:00,axn,34.55
2022-12-07T07:06:00,axn,36.47
2022-12-07T07:07:00,axn,37.11
2022-12-07T07:08:00,axn,36.71
2022-12-07T07:09:00,axn,36.97
2022-12-07T07:10:00,axn,36.37
2022-12-07T07:11:00,axn,36.39
2022-12-07T07:12:00,axn,36.34
2022-12-07T07:13:00,axn,36.41
2022-12-07T07:14:00,axn,36.47
2022-12-07T07:15:00,axn,36.34
2022-12-07T07:16:00,axn,36.18
2022-12-07T07:17:00,axn,36.76
2022-12-07T07:18:00,axn,36.36
2022-12-07T07:19:00,axn,36.41
2022-12-07T07:20:00,axn,36.44
2022-12-07T07:21:00,axn,36.37
2022-12-07T07:22:00,axn,36.40
2022-12-07T07:23:00,axn,36.47
2022-12-07T07:24:00,axn,36.50
2022-12-07T07:25:00,axn,36.39
2022-12-07T07:26:00,axn,36.60
2022-12-07T07:27:00,axn,36.55
2022-12-07T07:28:00,axn,36.55
2022-12-07T07:29:00,axn,36.79
2022-12-07T07:30:00,axn,36.60
2022-12-07T07:31:00,axn,36.36
2022-12-07T07:32:00,axn,36.02
2022-12-07T07:33:00,axn,35.95
2022-12-07T07:34:00,axn,36.21
2022-12-07T07:35:00,axn,36.27
2022-12-07T07:36:00,axn,36.20
2022-12-07T07:37:00,axn,36.23
2022-12-07T07:38:00,axn,36.69
2022-12-07T07:39:00,axn,36.55
2022-12-07T07:40:00,axn,37.25
2022-12-07T07:41:00,axn,36.91
2022-12-07T07:42:00,axn,37.07
2022-12-07T07:43:00,axn,37.18
2022-12-07T07:44:00,axn,36.79
2022-12-07T07:45:00,axn,36.81
2022-12-07T07:46:00,axn,36.73
2022-12-07T07:47:00,axn,41.66
2022-12-07T07:48:00,axn,36.70
2022-12-07T07:49:00,axn,36.72
2022-12-07T07:50:00,axn,36.86
2022-12-07T07:51:00,axn,53.74
2022-12-07T07:52:00,axn,37.16
2022-12-07T07:53:00,axn,45.02
2022-12-07T07:54:00,axn,45.33
2022-12-07T07:55:00,axn,45.72
2022-12-07T07:56:00,axn,45.09
2022-12-07T07:57:00,axn,45.59
2022-12-07T07:58:00,axn,45.10
2022-12-07T07:59:00,axn,46.01
2022-12-07T08:00:00,axn,45.14
2022-12-07T08:01:00,axn,45.82
2022-12-07T08:02:00,axn,49.71
2022-12-07T08:03:00,axn,49.72
2022-12-07T08:04:00,axn,49.82
2022-12-07T08:05:00,axn,49.83
2022-12-07T08:06:00,axn,49.39
2022-12-07T08:07:00,axn,49.37
2022-12-07T08:08:00,axn,49.52
2022-12-07T08:09:00,axn,49.82
2022-12-07T08:10:00,axn,51.96
2022-12-07T08:11:00,axn,49.74
2022-12-07T08:12:00,axn,50.15
2022-12-07T08:13:00,axn,50.33
2022-12-07T08:14:00,axn,50.07
2022-12-07T08:15:00,axn,49.93
2022-12-07T08:16:00,axn,49.99
2022-12-07T08:17:00,axn,50.07
2022-12-07T08:18:00,axn,50.32
2022-12-07T08:19:00,axn,49.64
2022-12-07T08:20:00,axn,49.53
2022-12-07T08:21:00,axn,49.70
2022-12-07T08:22:00,axn,49.66
2022-12-07T08:23:00,axn,49.72
2022-12-07T08:24:00,axn,49.66
2022-12-07T08:25:00,axn,49.73
2022-12-07T08:26:00,axn,66.56
2022-12-07T08:27:00,axn,49.93
2022-12-07T08:28:00,axn,50.23
2022-12-07T08:29:00,axn,50.19
2022-12-07T08:30:00,axn,50.09
2022-12-07T08:31:00,axn,50.16
2022-12-07T08:32:00,axn,50.40
2022-12-07T08:33:00,axn,50.18
2022-12-07T08:34:00,axn,50.34
2022-12-07T08:35:00,axn,46.28
2022-12-07T08:36:00,axn,43.45
2022-12-07T08:37:00,axn,43.45
2022-12-07T08:38:00,axn,43.33
2022-12-07T08:39:00,axn,43.20
2022-12-07T08:40:00,axn,44.11
2022-12-07T08:41:00,axn,43.73
2022-12-07T08:42:00,axn,43.94
2022-12-07T08:43:00,axn,43.89
2022-12-07T08:44:00,axn,46.78
2022-12-07T08:45:00,axn,47.89
2022-12-07T08:46:00,axn,47.46
2022-12-07T08:47:00,axn,44.87
2022-12-07T08:48:00,axn,44.77
2022-12-07T08:49:00,axn,45.19
2022-12-07T08:50:00,axn,45.80
2022-12-07T08:51:00,axn,46.01
2022-12-07T08:52:00,axn,45.99
2022-12-07T08:53:00,axn,46.14
2022-12-07T08:54:00,axn,46.69
2022-12-07T08:55:00,axn,46.51
2022-12-07T08:56:00,axn,46.52
2022-12-07T08:57:00,axn,47.02
2022-12-07T08:58:00,axn,46.53
2022-12-07T08:59:00,axn,47.18
2022-12-07T09:00:00,axn,46.53
2022-12-07T09:01:00,axn,46.89
2022-12-07T09:02:00,axn,50.00
2022-12-07T09:03:00,axn,61.15
2022-12-07T09:04:00,axn,61.71
2022-12-07T09:05:00,axn,58.27
2022-12-07T09:06:00,axn,58.72
2022-12-07T09:07:00,axn,48.60
2022-12-07T09:08:00,axn,48.27
2022-12-07T09:09:00,axn,48.12
2022-12-07T09:10:00,axn,48.71
2022-12-07T09:11:00,axn,49.33
2022-12-07T09:12:00,axn,49.26
2022-12-07T09:13:00,axn,48.80
2022-12-07T09:14:00,axn,48.58
2022-12-07T09:15:00,axn,48.57
2022-12-07T09:16:00,axn,48.74
2022-12-07T09:17:00,axn,48.75
2022-12-07T09:18:00,axn,48.83
2022-12-07T09:19:00,axn,48.61
2022-12-07T09:20:00,axn,48.60
2022-12-07T09:21:00,axn,48.63
2022-12-07T09:22:00,axn,48.29
2022-12-07T09:23:00,axn,48.26
2022-12-07T09:24:00,axn,48.34
2022-12-07T09:25:00,axn,48.48
2022-12-07T09:26:00,axn,48.45
2022-12-07T09:27:00,axn,48.41
2022-12-07T09:28:00,axn,48.52
2022-12-07T09:29:00,axn,48.61
2022-12-07T09:30:00,axn,48.74
2022-12-07T09:31:00,axn,48.65
2022-12-07T09:32:00,axn,48.00
2022-12-07T09:33:00,axn,58.77
2022-12-07T09:34:00,axn,48.59
2022-12-07T09:35:00,axn,48.60
2022-12-07T09:36:00,axn,48.49
2022-12-07T09:37:00,axn,48.43
2022-12-07T09:38:00,axn,48.42
2022-12-07T09:39:00,axn,48.22
2022-12-07T09:40:00,axn,48.11
2022-12-07T09:41:00,axn,48.40
2022-12-07T09:42:00,axn,48.27
2022-12-07T09:43:00,axn,51.18
2022-12-07T09:44:00,axn,51.45
2022-12-07T09:45:00,axn,48.06
2022-12-07T09:46:00,axn,48.36
2022-12-07T09:47:00,axn,48.54
2022-12-07T09:48:00,axn,48.10
2022-12-07T09:49:00,axn,48.43
2022-12-07T09:50:00,axn,48.54
2022-12-07T09:51:00,axn,47.82
2022-12-07T09:52:00,axn,47.70
2022-12-07T09:53:00,axn,48.07
2022-12-07T09:54:00,axn,48.51
2022-12-07T09:55:00,axn,47.84
2022-12-07T09:56:00,axn,48.23
2022-12-07T09:57:00,axn,47.75
2022-12-07T09:58:00,axn,47.98
2022-12-07T09:59:00,axn,48.11
2022-12-07T10:00:00,axn,47.14
2022-12-07T10:01:00,axn,46.77
2022-12-07T10:02:00,axn,46.42
2022-12-07T10:03:00,axn,47.53
2022-12-07T10:04:00,axn,47.38
2022-12-07T10:05:00,axn,46.98
2022-12-07T10:06:00,axn,47.13
2022-12-07T10:07:00,axn,46.86
2022-12-07T10:08:00,axn,46.18
2022-12-07T10:09:00,axn,46.89
2022-12-07T10:10:00,axn,49.17
2022-12-07T10:11:00,axn,49.77
2022-12-07T10:12:00,axn,49.58
2022-12-07T10:13:00,axn,49.52
2022-12-07T10:14:00,axn,50.03
2022-12-07T10:15:00,axn,46.98
2022-12-07T10:16:00,axn,47.26
2022-12-07T10:17:00,axn,47.24
2022-12-07T10:18:00,axn,47.23
2022-12-07T10:19:00,axn,47.27
2022-12-07T10:20:00,axn,46.96
2022-12-07T10:21:00,axn,47.59
2022-12-07T10:22:00,axn,47.23
2022-12-07T10:23:00,axn,47.17
2022-12-07T10:24:00,axn,61.73
2022-12-07T10:25:00,axn,61.28
2022-12-07T10:26:00,axn,61.08
2022-12-07T10:27:00,axn,61.25
2022-12-07T10:28:00,axn,61.24
2022-12-07T10:29:00,axn,61.23
2022-12-07T10:30:00,axn,47.82
2022-12-07T10:31:00,axn,48.92
2022-12-07T10:32:00,axn,47.71
2022-12-07T10:33:00,axn,64.39
2022-12-07T10:34:00,axn,46.68
2022-12-07T10:35:00,axn,47.20
2022-12-07T10:36:00,axn,47.44
2022-12-07T10:37:00,axn,47.61
2022-12-07T10:38:00,axn,47.99
2022-12-07T10:39:00,axn,47.76
2022-12-07T10:40:00,axn,47.77
2022-12-07T10:41:00,axn,47.93
2022-12-07T10:42:00,axn,62.78
2022-12-07T10:43:00,axn,48.84
2022-12-07T10:44:00,axn,47.79
2022-12-07T10:45:00,axn,48.08
2022-12-07T10:46:00,axn,50.92
2022-12-07T10:47:00,axn,47.75
2022-12-07T10:48:00,axn,47.55
2022-12-07T10:49:00,axn,47.10
2022-12-07T10:50:00,axn,47.11
2022-12-07T10:51:00,axn,47.02
2022-12-07T10:52:00,axn,47.02
2022-12-07T10:53:00,axn,47.14
2022-12-07T10:54:00,axn,47.40
2022-12-07T10:55:00,axn,47.46
2022-12-07T10:56:00,axn,47.04
2022-12-07T10:57:00,axn,46.89
2022-12-07T10:58:00,axn,46.60
2022-12-07T10:59:00,axn,46.26
2022-12-07T11:00:00,axn,46.86
2022-12-07T11:01:00,axn,46.41
2022-12-07T11:02:00,axn,46.22
2022-12-07T11:03:00,axn,46.04
2022-12-07T11:04:00,axn,46.29
2022-12-07T11:05:00,axn,46.74
2022-12-07T11:06:00,axn,46.73
2022-12-07T11:07:00,axn,46.71
2022-12-07T11:08:00,axn,45.97
2022-12-07T11:09:00,axn,45.63
2022-12-07T11:10:00,axn,54.18
2022-12-07T11:11:00,axn,54.23
2022-12-07T11:12:00,axn,53.40
2022-12-07T11:13:00,axn,53.63
2022-12-07T11:14:00,axn,53.89
2022-12-07T11:15:00,axn,53.82
2022-12-07T11:16:00,axn,53.38
2022-12-07T11:17:00,axn,53.43
2022-12-07T11:18:00,axn,53.04
2022-12-07T11:19:00,axn,53.28
2022-12-07T11:20:00,axn,53.05
2022-12-07T11:21:00,axn,53.09
2022-12-07T11:22:00,axn,53.35
2022-12-07T11:23:00,axn,53.20
2022-12-07T11:24:00,axn,53.77
2022-12-07T11:25:00,axn,53.33
2022-12-07T11:26:00,axn,53.04
2022-12-07T11:27:00,axn,53.19
2022-12-07T11:28:00,axn,53.86
2022-12-07T11:29:00,axn,53.48
2022-12-07T11:30:00,axn,53.96
2022-12-07T11:31:00,axn,53.17
2022-12-07T11:32:00,axn,53.09
2022-12-07T11:33:00,axn,53.68
2022-12-07T11:34:00,axn,53.36
2022-12-07T11:35:00,axn,53.47
2022-12-07T11:36:00,axn,53.71
2022-12-07T11:37:00,axn,53.47
2022-12-07T11:38:00,axn,54.08
2022-12-07T11:39:00,axn,56.06
2022-12-07T11:40:00,axn,55.97
2022-12-07T11:41:00,axn,56.10
2022-12-07T11:42:00,axn,56.07
2022-12-07T11:43:00,axn,55.77
2022-12-07T11:44:00,axn,58.48
2022-12-07T11:45:00,axn,58.40
2022-12-07T11:46:00,axn,44.99
2022-12-07T11:47:00,axn,45.59
2022-12-07T11:48:00,axn,45.82
2022-12-07T11:49:00,axn,46.56
2022-12-07T11:50:00,axn,45.93
2022-12-07T11:51:00,axn,46.32
2022-12-07T11:52:00,axn,46.12
2022-12-07T11:53:00,axn,46.16
2022-12-07T11:54:00,axn,45.65
2022-12-07T11:55:00,axn,45.29
2022-12-07T11:56:00,axn,45.60
2022-12-07T11:57:00,axn,45.40
2022-12-07T11:58:00,axn,45.87
2022-12-07T11:59:00,axn,46.49
2022-12-07T12:00:00,axn,46.95
2022-12-07T12:01:00,axn,49.91
2022-12-07T12:02:00,axn,48.66
2022-12-07T12:03:00,axn,46.92
2022-12-07T12:04:00,axn,46.62
2022-12-07T12:05:00,axn,47.47
2022-12-07T12:06:00,axn,47.42
2022-12-07T12:07:00,axn,48.50
2022-12-07T12:08:00,axn,47.33
2022-12-07T12:09:00,axn,47.75
2022-12-07T12:10:00,axn,47.14
2022-12-07T12:11:00,axn,47.15
2022-12-07T12:12:00,axn,48.53
2022-12-07T12:13:00,axn,47.69
2022-12-07T12:14:00,axn,48.76
2022-12-07T12:15:00,axn,48.50
2022-12-07T12:16:00,axn,48.48
2022-12-07T12:17:00,axn,48.70
2022-12-07T12:18:00,axn,51.24
2022-12-07T12:19:00,axn,51.52
2022-12-07T12:20:00,axn,51.39
2022-12-07T12:21:00,axn,48.19
2022-12-07T12:22:00,axn,48.39
2022-12-07T12:23:00,axn,48.77
2022-12-07T12:24:00,axn,49.06
2022-12-07T12:25:00,axn,48.41
2022-12-07T12:26:00,axn,48.36
2022-12-07T12:27:00,axn,49.00
2022-12-07T12:28:00,axn,48.79
2022-12-07T12:29:00,axn,49.89
2022-12-07T12:30:00,axn,49.60
2022-12-07T12:31:00,axn,49.04
2022-12-07T12:32:00,axn,49.17
2022-12-07T12:33:00,axn,49.37
2022-12-07T12:34:00,axn,49.36
2022-12-07T12:35:00,axn,49.11
2022-12-07T12:36:00,axn,57.52
2022-12-07T12:37:00,axn,57.39
2022-12-07T12:38:00,axn,57.78
2022-12-07T12:39:00,axn,57.05
2022-12-07T12:40:00,axn,57.34
2022-12-07T12:41:00,axn,57.25
2022-12-07T12:42:00,axn,56.93
2022-12-07T12:43:00,axn,56.70
2022-12-07T12:44:00,axn,57.10
2022-12-07T12:45:00,axn,57.33
2022-12-07T12:46:00,axn,57.37
2022-12-07T12:47:00,axn,57.76
2022-12-07T12:48:00,axn,57.22
2022-12-07T12:49:00,axn,57.26
2022-12-07T12:50:00,axn,58.31
2022-12-07T12:51:00,axn,59.26
2022-12-07T12:52:00,axn,64.12
2022-12-07T12:53:00,axn,63.97
2022-12-07T12:54:00,axn,64.03
2022-12-07T12:55:00,axn,63.54
2022-12-07T12:56:00,axn,59.38
2022-12-07T12:57:00,axn,59.16
2022-12-07T12:58:00,axn,59.34
2022-12-07T12:59:00,axn,58.98
2022-12-07T13:00:00,axn,67.98
2022-12-07T13:01:00,axn,68.20
2022-12-07T13:02:00,axn,64.91
2022-12-07T13:03:00,axn,59.95
2022-12-07T13:04:00,axn,58.98
2022-12-07T13:05:00,axn,56.87
2022-12-07T13:06:00,axn,56.66
2022-12-07T13:07:00,axn,56.73
2022-12-07T13:08:00,axn,56.73
2022-12-07T13:09:00,axn,56.28
2022-12-07T13:10:00,axn,55.99
2022-12-07T13:11:00,axn,56.30
2022-12-07T13:12:00,axn,80.11
2022-12-07T13:13:00,axn,56.62
2022-12-07T13:14:00,axn,56.26
2022-12-07T13:15:00,axn,56.26
2022-12-07T13:16:00,axn,58.66
2022-12-07T13:17:00,axn,55.45
2022-12-07T13:18:00,axn,55.36